Volver al catálogo

STARLINK-36802

ActivoComunicacionesSSO
NORAD 67985·PAYLOAD·🇺🇸 United States

Lanzado Feb 25, 2026 desde Vandenberg Space Force Base

Loading…

Próximos Pases (próximas 24 horas)

TLE

ActualizadoSource: CelesTrak SupGP

Época: Sep 14, 2026, 22:35 UTC

1 67985C 26038AA  26257.94145833  .00040586  00000+0  12598-2 0  2579
2 67985  97.2841 267.2131 0001620  87.1314  47.3873 15.33420885    15

Sigue STARLINK-36802 en tiempo real con AllMySat

Download on the App Store